Year,Month,Day,Hour,Minute,Value (Times are PST for temperature in C)
2012,06,25,00,00,10.20
2012,06,25,00,01,10.10
2012,06,25,00,02,10.10
2012,06,25,00,03,10.10
2012,06,25,00,04,10.10
2012,06,25,00,05,10.10
2012,06,25,00,06,10.10
2012,06,25,00,07,10.10
2012,06,25,00,08,10.10
2012,06,25,00,09,10.10
2012,06,25,00,10,10.10
2012,06,25,00,11,10.10
2012,06,25,00,12,10.10
2012,06,25,00,13,10.10
2012,06,25,00,14,10.10
2012,06,25,00,15,10.10
2012,06,25,00,16,10.10
2012,06,25,00,17,10.10
2012,06,25,00,18,10.10
2012,06,25,00,19,10.10
2012,06,25,00,20,10.10
2012,06,25,00,21,10.10
2012,06,25,00,22,10.10
2012,06,25,00,23,10.10
2012,06,25,00,24,10.10
2012,06,25,00,25,10.10
2012,06,25,00,26,10.10
2012,06,25,00,27,10.10
2012,06,25,00,28,10.10
2012,06,25,00,29,10.10
2012,06,25,00,30,10.00
2012,06,25,00,31,9.90
2012,06,25,00,32,9.90
2012,06,25,00,33,9.90
2012,06,25,00,34,9.90
2012,06,25,00,35,9.90
2012,06,25,00,36,9.90
2012,06,25,00,37,9.90
2012,06,25,00,38,9.90
2012,06,25,00,39,9.80
2012,06,25,00,40,9.80
2012,06,25,00,41,9.80
2012,06,25,00,42,9.70
2012,06,25,00,43,9.70
2012,06,25,00,44,9.70
2012,06,25,00,45,9.70
2012,06,25,00,46,9.80
2012,06,25,00,47,9.80
2012,06,25,00,48,9.80
2012,06,25,00,49,9.80
2012,06,25,00,50,9.80
2012,06,25,00,51,9.90
2012,06,25,00,52,9.90
2012,06,25,00,53,9.90
2012,06,25,00,54,9.90
2012,06,25,00,55,9.90
2012,06,25,00,56,9.90
2012,06,25,00,57,9.90
2012,06,25,00,58,9.90
2012,06,25,00,59,9.90
2012,06,25,01,00,9.90
2012,06,25,01,01,9.90
2012,06,25,01,02,9.90
2012,06,25,01,03,9.90
2012,06,25,01,04,9.90
2012,06,25,01,05,9.90
2012,06,25,01,06,9.90
2012,06,25,01,07,9.80
2012,06,25,01,08,9.80
2012,06,25,01,09,9.80
2012,06,25,01,10,9.80
2012,06,25,01,11,9.70
2012,06,25,01,12,9.70
2012,06,25,01,13,9.70
2012,06,25,01,14,9.70
2012,06,25,01,15,9.70
2012,06,25,01,16,9.70
2012,06,25,01,17,9.70
2012,06,25,01,18,9.70
2012,06,25,01,19,9.70
2012,06,25,01,20,9.70
2012,06,25,01,21,9.70
2012,06,25,01,22,9.70
2012,06,25,01,23,9.70
2012,06,25,01,24,9.70
2012,06,25,01,25,9.70
2012,06,25,01,26,9.70
2012,06,25,01,27,9.70
2012,06,25,01,28,9.70
2012,06,25,01,29,9.70
2012,06,25,01,30,9.70
2012,06,25,01,31,9.70
2012,06,25,01,32,9.70
2012,06,25,01,33,9.70
2012,06,25,01,34,9.60
2012,06,25,01,35,9.60
2012,06,25,01,36,9.60
2012,06,25,01,37,9.60
2012,06,25,01,38,9.50
2012,06,25,01,39,9.50
2012,06,25,01,40,9.50
2012,06,25,01,41,9.50
2012,06,25,01,42,9.50
2012,06,25,01,43,9.50
2012,06,25,01,44,9.50
2012,06,25,01,45,9.50
2012,06,25,01,46,9.40
2012,06,25,01,47,9.40
2012,06,25,01,48,9.40
2012,06,25,01,49,9.40
2012,06,25,01,50,9.40
2012,06,25,01,51,9.40
2012,06,25,01,52,9.30
2012,06,25,01,53,9.30
2012,06,25,01,54,9.30
2012,06,25,01,55,9.30
2012,06,25,01,56,9.30
2012,06,25,01,57,9.30
2012,06,25,01,58,9.30
2012,06,25,01,59,9.30
2012,06,25,02,00,9.30
2012,06,25,02,01,9.30
2012,06,25,02,02,9.30
2012,06,25,02,03,9.30
2012,06,25,02,04,9.30
2012,06,25,02,05,9.30
2012,06,25,02,06,9.30
2012,06,25,02,07,9.30
2012,06,25,02,08,9.30
2012,06,25,02,09,9.30
2012,06,25,02,10,9.30
2012,06,25,02,11,9.30
2012,06,25,02,12,9.30
2012,06,25,02,13,9.30
2012,06,25,02,14,9.30
2012,06,25,02,15,9.30
2012,06,25,02,16,9.30
2012,06,25,02,17,9.30
2012,06,25,02,18,9.20
2012,06,25,02,19,9.20
2012,06,25,02,20,9.20
2012,06,25,02,21,9.20
2012,06,25,02,22,9.20
2012,06,25,02,23,9.20
2012,06,25,02,24,9.20
2012,06,25,02,25,9.20
2012,06,25,02,26,9.20
2012,06,25,02,27,9.20
2012,06,25,02,28,9.20
2012,06,25,02,29,9.20
2012,06,25,02,30,9.20
2012,06,25,02,31,9.20
2012,06,25,02,32,9.20
2012,06,25,02,33,9.20
2012,06,25,02,34,9.20
2012,06,25,02,35,9.20
2012,06,25,02,36,9.20
2012,06,25,02,37,9.20
2012,06,25,02,38,9.20
2012,06,25,02,39,9.20
2012,06,25,02,40,9.20
2012,06,25,02,41,9.20
2012,06,25,02,42,9.20
2012,06,25,02,43,9.10
2012,06,25,02,44,9.10
2012,06,25,02,45,9.10
2012,06,25,02,46,9.10
2012,06,25,02,47,9.10
2012,06,25,02,48,9.10
2012,06,25,02,49,9.10
2012,06,25,02,50,9.10
2012,06,25,02,51,9.00
2012,06,25,02,52,9.00
2012,06,25,02,53,9.00
2012,06,25,02,54,9.00
2012,06,25,02,55,9.10
2012,06,25,02,56,9.10
2012,06,25,02,57,9.10
2012,06,25,02,58,9.10
2012,06,25,02,59,9.10
2012,06,25,03,00,9.10
2012,06,25,03,01,9.00
2012,06,25,03,02,9.00
2012,06,25,03,03,9.00
2012,06,25,03,04,9.00
2012,06,25,03,05,9.00
2012,06,25,03,06,9.00
2012,06,25,03,07,9.00
2012,06,25,03,08,9.00
2012,06,25,03,09,9.00
2012,06,25,03,10,9.00
2012,06,25,03,11,8.90
2012,06,25,03,12,8.90
2012,06,25,03,13,8.90
2012,06,25,03,14,8.90
2012,06,25,03,15,8.80
2012,06,25,03,16,8.80
2012,06,25,03,17,8.80
2012,06,25,03,18,8.80
2012,06,25,03,19,8.80
2012,06,25,03,20,8.90
2012,06,25,03,21,8.90
2012,06,25,03,22,8.90
2012,06,25,03,23,8.90
2012,06,25,03,24,8.90
2012,06,25,03,25,8.90
2012,06,25,03,26,8.90
2012,06,25,03,27,8.90
2012,06,25,03,28,8.90
2012,06,25,03,29,8.90
2012,06,25,03,30,8.90
2012,06,25,03,31,8.90
2012,06,25,03,32,8.90
2012,06,25,03,33,8.90
2012,06,25,03,34,8.90
2012,06,25,03,35,8.90
2012,06,25,03,36,8.90
2012,06,25,03,37,8.90
2012,06,25,03,38,9.00
2012,06,25,03,39,9.00
2012,06,25,03,40,9.00
2012,06,25,03,41,9.00
2012,06,25,03,42,9.00
2012,06,25,03,43,9.10
2012,06,25,03,44,9.10
2012,06,25,03,45,9.10
2012,06,25,03,46,9.10
2012,06,25,03,47,9.10
2012,06,25,03,48,9.10
2012,06,25,03,49,9.10
2012,06,25,03,50,9.10
2012,06,25,03,51,9.10
2012,06,25,03,52,9.10
2012,06,25,03,53,9.10
2012,06,25,03,54,9.10
2012,06,25,03,55,9.10
2012,06,25,03,56,9.10
2012,06,25,03,57,9.00
2012,06,25,03,58,9.00
2012,06,25,03,59,9.00
2012,06,25,04,00,9.00
2012,06,25,04,01,9.10
2012,06,25,04,02,9.10
2012,06,25,04,03,9.10
2012,06,25,04,04,9.10
2012,06,25,04,05,9.10
2012,06,25,04,06,9.10
2012,06,25,04,07,9.10
2012,06,25,04,08,9.10
2012,06,25,04,09,9.00
2012,06,25,04,10,9.00
2012,06,25,04,11,9.00
2012,06,25,04,12,9.00
2012,06,25,04,13,9.00
2012,06,25,04,14,9.00
2012,06,25,04,15,8.90
2012,06,25,04,16,8.90
2012,06,25,04,17,8.90
2012,06,25,04,18,8.90
2012,06,25,04,19,8.90
2012,06,25,04,20,8.90
2012,06,25,04,21,8.90
2012,06,25,04,22,8.90
2012,06,25,04,23,8.80
2012,06,25,04,24,8.80
2012,06,25,04,25,8.80
2012,06,25,04,26,8.80
2012,06,25,04,27,8.70
2012,06,25,04,28,8.70
2012,06,25,04,29,8.70
2012,06,25,04,30,8.70
2012,06,25,04,31,8.70
2012,06,25,04,32,8.70
2012,06,25,04,33,8.70
2012,06,25,04,34,8.70
2012,06,25,04,35,8.70
2012,06,25,04,36,8.70
2012,06,25,04,37,8.70
2012,06,25,04,38,8.70
2012,06,25,04,39,8.70
2012,06,25,04,40,8.70
2012,06,25,04,41,8.80
2012,06,25,04,42,8.80
2012,06,25,04,43,8.80
2012,06,25,04,44,8.80
2012,06,25,04,45,8.80
2012,06,25,04,46,8.80
2012,06,25,04,47,8.80
2012,06,25,04,48,8.80
2012,06,25,04,49,8.70
2012,06,25,04,50,8.70
2012,06,25,04,51,8.70
2012,06,25,04,52,8.70
2012,06,25,04,53,8.70
2012,06,25,04,54,8.70
2012,06,25,04,55,8.70
2012,06,25,04,56,8.70
2012,06,25,04,57,8.70
2012,06,25,04,58,8.70
2012,06,25,04,59,8.70
2012,06,25,05,00,8.70
2012,06,25,05,01,8.70
2012,06,25,05,02,8.70
2012,06,25,05,03,8.70
2012,06,25,05,04,8.70
2012,06,25,05,05,8.70
2012,06,25,05,06,8.70
2012,06,25,05,07,8.70
2012,06,25,05,08,8.70
2012,06,25,05,09,8.70
2012,06,25,05,10,8.70
2012,06,25,05,11,8.70
2012,06,25,05,12,8.70
2012,06,25,05,13,8.70
2012,06,25,05,14,8.70
2012,06,25,05,15,8.70
2012,06,25,05,16,8.70
2012,06,25,05,17,8.70
2012,06,25,05,18,8.70
2012,06,25,05,19,8.70
2012,06,25,05,20,8.70
2012,06,25,05,21,8.70
2012,06,25,05,22,8.70
2012,06,25,05,23,8.70
2012,06,25,05,24,8.70
2012,06,25,05,25,8.70
2012,06,25,05,26,8.70
2012,06,25,05,27,8.70
2012,06,25,05,28,8.70
2012,06,25,05,29,8.70
2012,06,25,05,30,8.70
2012,06,25,05,31,8.70
2012,06,25,05,32,8.70
2012,06,25,05,33,8.70
2012,06,25,05,34,8.70
2012,06,25,05,35,8.70
2012,06,25,05,36,8.70
2012,06,25,05,37,8.70
2012,06,25,05,38,8.70
2012,06,25,05,39,8.70
2012,06,25,05,40,8.70
2012,06,25,05,41,8.70
2012,06,25,05,42,8.70
2012,06,25,05,43,8.70
2012,06,25,05,44,8.70
2012,06,25,05,45,8.70
2012,06,25,05,46,8.70
2012,06,25,05,47,8.80
2012,06,25,05,48,8.80
2012,06,25,05,49,8.80
2012,06,25,05,50,8.80
2012,06,25,05,51,8.90
2012,06,25,05,52,8.90
2012,06,25,05,53,8.90
2012,06,25,05,54,8.90
2012,06,25,05,55,8.90
2012,06,25,05,56,9.00
2012,06,25,05,57,9.00
2012,06,25,05,58,9.00
2012,06,25,05,59,9.10
2012,06,25,06,00,9.10
2012,06,25,06,01,9.10
2012,06,25,06,02,9.20
2012,06,25,06,03,9.20
2012,06,25,06,04,9.20
2012,06,25,06,05,9.20
2012,06,25,06,06,9.30
2012,06,25,06,07,9.30
2012,06,25,06,08,9.40
2012,06,25,06,09,9.40
2012,06,25,06,10,9.50
2012,06,25,06,11,9.50
2012,06,25,06,12,9.60
2012,06,25,06,13,9.70
2012,06,25,06,14,9.70
2012,06,25,06,15,9.70
2012,06,25,06,16,9.70
2012,06,25,06,17,9.80
2012,06,25,06,18,9.80
2012,06,25,06,19,9.90
2012,06,25,06,20,9.90
2012,06,25,06,21,9.90
2012,06,25,06,22,9.90
2012,06,25,06,23,9.90
2012,06,25,06,24,10.00
2012,06,25,06,25,10.10
2012,06,25,06,26,10.10
2012,06,25,06,27,10.10
2012,06,25,06,28,10.20
2012,06,25,06,29,10.20
2012,06,25,06,30,10.20
2012,06,25,06,31,10.30
2012,06,25,06,32,10.30
2012,06,25,06,33,10.40
2012,06,25,06,34,10.40
2012,06,25,06,35,10.40
2012,06,25,06,36,10.40
2012,06,25,06,37,10.60
2012,06,25,06,38,10.60
2012,06,25,06,39,10.60
2012,06,25,06,40,10.70
2012,06,25,06,41,10.80
2012,06,25,06,42,10.80
2012,06,25,06,43,10.90
2012,06,25,06,44,10.90
2012,06,25,06,45,10.90
2012,06,25,06,46,11.00
2012,06,25,06,47,11.10
2012,06,25,06,48,11.10
2012,06,25,06,49,11.20
2012,06,25,06,50,11.20
2012,06,25,06,51,11.20
2012,06,25,06,52,11.30
2012,06,25,06,53,11.30
2012,06,25,06,54,11.30
2012,06,25,06,55,11.40
2012,06,25,06,56,11.40
2012,06,25,06,57,11.40
2012,06,25,06,58,11.40
2012,06,25,06,59,11.40
2012,06,25,07,00,11.40
2012,06,25,07,01,11.50
2012,06,25,07,02,11.60
2012,06,25,07,03,11.60
2012,06,25,07,04,11.60
2012,06,25,07,05,11.70
2012,06,25,07,06,11.70
2012,06,25,07,07,11.80
2012,06,25,07,08,11.80
2012,06,25,07,09,11.90
2012,06,25,07,10,11.90
2012,06,25,07,11,12.00
2012,06,25,07,12,12.10
2012,06,25,07,13,12.10
2012,06,25,07,14,12.20
2012,06,25,07,15,12.30
2012,06,25,07,16,12.30
2012,06,25,07,17,12.40
2012,06,25,07,18,12.50
2012,06,25,07,19,12.50
2012,06,25,07,20,12.60
2012,06,25,07,21,12.60
2012,06,25,07,22,12.70
2012,06,25,07,23,12.70
2012,06,25,07,24,12.80
2012,06,25,07,25,12.80
2012,06,25,07,26,12.80
2012,06,25,07,27,12.80
2012,06,25,07,28,12.80
2012,06,25,07,29,12.90
2012,06,25,07,30,12.90
2012,06,25,07,31,13.00
2012,06,25,07,32,13.00
2012,06,25,07,33,13.00
2012,06,25,07,34,13.10
2012,06,25,07,35,13.20
2012,06,25,07,36,13.20
2012,06,25,07,37,13.30
2012,06,25,07,38,13.30
2012,06,25,07,39,13.30
2012,06,25,07,40,13.30
2012,06,25,07,41,13.30
2012,06,25,07,42,13.30
2012,06,25,07,43,13.40
2012,06,25,07,44,13.50
2012,06,25,07,45,13.60
2012,06,25,07,46,13.60
2012,06,25,07,47,13.70
2012,06,25,07,48,13.70
2012,06,25,07,49,13.70
2012,06,25,07,50,13.70
2012,06,25,07,51,13.80
2012,06,25,07,52,13.90
2012,06,25,07,53,14.00
2012,06,25,07,54,14.00
2012,06,25,07,55,14.00
2012,06,25,07,56,14.10
2012,06,25,07,57,14.20
2012,06,25,07,58,14.20
2012,06,25,07,59,14.20
2012,06,25,08,00,14.20
2012,06,25,08,01,14.20
2012,06,25,08,02,14.30
2012,06,25,08,03,14.40
2012,06,25,08,04,14.40
2012,06,25,08,05,14.50
2012,06,25,08,06,14.50
2012,06,25,08,07,14.60
2012,06,25,08,08,14.60
2012,06,25,08,09,14.60
2012,06,25,08,10,14.60
2012,06,25,08,11,14.60
2012,06,25,08,12,14.60
2012,06,25,08,13,14.70
2012,06,25,08,14,14.80
2012,06,25,08,15,14.80
2012,06,25,08,16,14.90
2012,06,25,08,17,14.90
2012,06,25,08,18,14.90
2012,06,25,08,19,14.80
2012,06,25,08,20,14.80
2012,06,25,08,21,14.80
2012,06,25,08,22,14.80
2012,06,25,08,23,14.70
2012,06,25,08,24,14.50
2012,06,25,08,25,14.40
2012,06,25,08,26,14.20
2012,06,25,08,27,14.20
2012,06,25,08,28,14.20
2012,06,25,08,29,14.20
2012,06,25,08,30,14.20
2012,06,25,08,31,14.20
2012,06,25,08,32,14.10
2012,06,25,08,33,14.00
2012,06,25,08,34,13.90
2012,06,25,08,35,13.80
2012,06,25,08,36,13.70
2012,06,25,08,37,13.50
2012,06,25,08,38,13.40
2012,06,25,08,39,13.20
2012,06,25,08,40,13.10
2012,06,25,08,41,12.90
2012,06,25,08,42,12.80
2012,06,25,08,43,12.70
2012,06,25,08,44,12.60
2012,06,25,08,45,12.60
2012,06,25,08,46,12.60
2012,06,25,08,47,12.60
2012,06,25,08,48,12.70
2012,06,25,08,49,12.70
2012,06,25,08,50,12.80
2012,06,25,08,51,13.00
2012,06,25,08,52,13.20
2012,06,25,08,53,13.30
2012,06,25,08,54,13.50
2012,06,25,08,55,13.50
2012,06,25,08,56,13.50
2012,06,25,08,57,13.30
2012,06,25,08,58,13.30
2012,06,25,08,59,13.30
2012,06,25,09,00,13.30
2012,06,25,09,01,13.30
2012,06,25,09,02,13.20
2012,06,25,09,03,13.10
2012,06,25,09,04,13.00
2012,06,25,09,05,12.90
2012,06,25,09,06,12.80
2012,06,25,09,07,12.80
2012,06,25,09,08,12.70
2012,06,25,09,09,12.70
2012,06,25,09,10,12.70
2012,06,25,09,11,12.60
2012,06,25,09,12,12.60
2012,06,25,09,13,12.70
2012,06,25,09,14,12.70
2012,06,25,09,15,12.70
2012,06,25,09,16,12.60
2012,06,25,09,17,12.40
2012,06,25,09,18,12.30
2012,06,25,09,19,12.30
2012,06,25,09,20,12.30
2012,06,25,09,21,12.30
2012,06,25,09,22,12.30
2012,06,25,09,23,12.30
2012,06,25,09,24,12.30
2012,06,25,09,25,12.30
2012,06,25,09,26,12.30
2012,06,25,09,27,12.30
2012,06,25,09,28,12.30
2012,06,25,09,29,12.30
2012,06,25,09,30,12.40
2012,06,25,09,31,12.40
2012,06,25,09,32,12.40
2012,06,25,09,33,12.40
2012,06,25,09,34,12.40
2012,06,25,09,35,12.40
2012,06,25,09,36,12.40
2012,06,25,09,37,12.40
2012,06,25,09,38,12.40
2012,06,25,09,39,12.50
2012,06,25,09,40,12.60
2012,06,25,09,41,12.70
2012,06,25,09,42,12.70
2012,06,25,09,43,12.70
2012,06,25,09,44,12.70
2012,06,25,09,45,12.80
2012,06,25,09,46,12.80
2012,06,25,09,47,12.90
2012,06,25,09,48,13.00
2012,06,25,09,49,13.00
2012,06,25,09,50,13.00
2012,06,25,09,51,13.00
2012,06,25,09,52,13.10
2012,06,25,09,53,13.10
2012,06,25,09,54,13.10
2012,06,25,09,55,13.10
2012,06,25,09,56,13.20
2012,06,25,09,57,13.10
2012,06,25,09,58,13.10
2012,06,25,09,59,13.10
2012,06,25,10,00,13.20
2012,06,25,10,01,13.20
2012,06,25,10,02,13.20
2012,06,25,10,03,13.20
2012,06,25,10,04,13.20
2012,06,25,10,05,13.30
2012,06,25,10,06,13.30
2012,06,25,10,07,13.30
2012,06,25,10,08,13.40
2012,06,25,10,09,13.50
2012,06,25,10,10,13.60
2012,06,25,10,11,13.60
2012,06,25,10,12,13.70
2012,06,25,10,13,13.90
2012,06,25,10,14,14.00
2012,06,25,10,15,13.90
2012,06,25,10,16,13.90
2012,06,25,10,17,13.90
2012,06,25,10,18,13.90
2012,06,25,10,19,13.90
2012,06,25,10,20,14.00
2012,06,25,10,21,14.00
2012,06,25,10,22,14.00
2012,06,25,10,23,14.00
2012,06,25,10,24,14.00
2012,06,25,10,25,13.90
2012,06,25,10,26,13.90
2012,06,25,10,27,13.90
2012,06,25,10,28,13.90
2012,06,25,10,29,13.90
2012,06,25,10,30,14.00
2012,06,25,10,31,14.00
2012,06,25,10,32,14.10
2012,06,25,10,33,14.10
2012,06,25,10,34,14.10
2012,06,25,10,35,14.10
2012,06,25,10,36,14.10
2012,06,25,10,37,14.10
2012,06,25,10,38,14.00
2012,06,25,10,39,14.00
2012,06,25,10,40,13.90
2012,06,25,10,41,13.90
2012,06,25,10,42,13.80
2012,06,25,10,43,13.80
2012,06,25,10,44,13.80
2012,06,25,10,45,13.80
2012,06,25,10,46,13.80
2012,06,25,10,47,13.80
2012,06,25,10,48,13.80
2012,06,25,10,49,13.80
2012,06,25,10,50,13.80
2012,06,25,10,51,13.80
2012,06,25,10,52,13.80
2012,06,25,10,53,13.90
2012,06,25,10,54,14.00
2012,06,25,10,55,14.10
2012,06,25,10,56,14.10
2012,06,25,10,57,14.10
2012,06,25,10,58,14.10
2012,06,25,10,59,14.10
2012,06,25,11,00,14.10
2012,06,25,11,01,14.10
2012,06,25,11,02,14.10
2012,06,25,11,03,14.20
2012,06,25,11,04,14.30
2012,06,25,11,05,14.40
2012,06,25,11,06,14.40
2012,06,25,11,07,14.40
2012,06,25,11,08,14.40
2012,06,25,11,09,14.40
2012,06,25,11,10,14.40
2012,06,25,11,11,14.50
2012,06,25,11,12,14.60
2012,06,25,11,13,14.70
2012,06,25,11,14,14.70
2012,06,25,11,15,14.80
2012,06,25,11,16,14.80
2012,06,25,11,17,14.90
2012,06,25,11,18,15.00
2012,06,25,11,19,15.10
2012,06,25,11,20,15.10
2012,06,25,11,21,15.20
2012,06,25,11,22,15.30
2012,06,25,11,23,15.30
2012,06,25,11,24,15.30
2012,06,25,11,25,15.30
2012,06,25,11,26,15.30
2012,06,25,11,27,15.30
2012,06,25,11,28,15.30
2012,06,25,11,29,15.30
2012,06,25,11,30,15.30
2012,06,25,11,31,15.10
2012,06,25,11,32,15.10
2012,06,25,11,33,15.00
2012,06,25,11,34,14.90
2012,06,25,11,35,14.90
2012,06,25,11,36,14.90
2012,06,25,11,37,14.90
2012,06,25,11,38,14.90
2012,06,25,11,39,15.00
2012,06,25,11,40,15.00
2012,06,25,11,41,15.10
2012,06,25,11,42,15.30
2012,06,25,11,43,15.50
2012,06,25,11,44,15.60
2012,06,25,11,45,15.60
2012,06,25,11,46,15.60
2012,06,25,11,47,15.60
2012,06,25,11,48,15.70
2012,06,25,11,49,15.70
2012,06,25,11,50,15.70
2012,06,25,11,51,15.80
2012,06,25,11,52,15.80
2012,06,25,11,53,15.80
2012,06,25,11,54,15.80
2012,06,25,11,55,15.80
2012,06,25,11,56,15.80
2012,06,25,11,57,15.80
2012,06,25,11,58,15.90
2012,06,25,11,59,15.90
2012,06,25,12,00,15.90
2012,06,25,12,01,15.80
2012,06,25,12,02,15.80
2012,06,25,12,03,15.80
2012,06,25,12,04,15.80
2012,06,25,12,05,15.70
2012,06,25,12,06,15.60
2012,06,25,12,07,15.60
2012,06,25,12,08,15.50
2012,06,25,12,09,15.60
2012,06,25,12,10,15.60
2012,06,25,12,11,15.60
2012,06,25,12,12,15.50
2012,06,25,12,13,15.30
2012,06,25,12,14,15.20
2012,06,25,12,15,15.10
2012,06,25,12,16,15.10
2012,06,25,12,17,15.10
2012,06,25,12,18,15.00
2012,06,25,12,19,15.00
2012,06,25,12,20,15.00
2012,06,25,12,21,15.00
2012,06,25,12,22,15.00
2012,06,25,12,23,15.00
2012,06,25,12,24,14.80
2012,06,25,12,25,14.80
2012,06,25,12,26,14.80
2012,06,25,12,27,14.80
2012,06,25,12,28,14.80
2012,06,25,12,29,14.80
2012,06,25,12,30,14.80
2012,06,25,12,31,14.90
2012,06,25,12,32,14.90
2012,06,25,12,33,14.90
2012,06,25,12,34,14.90
2012,06,25,12,35,14.90
2012,06,25,12,36,14.80
2012,06,25,12,37,14.80
2012,06,25,12,38,14.70
2012,06,25,12,39,14.70
2012,06,25,12,40,14.60
2012,06,25,12,41,14.50
2012,06,25,12,42,14.50
2012,06,25,12,43,14.40
2012,06,25,12,44,14.40
2012,06,25,12,45,14.40
2012,06,25,12,46,14.40
2012,06,25,12,47,14.30
2012,06,25,12,48,14.30
2012,06,25,12,49,14.20
2012,06,25,12,50,14.20
2012,06,25,12,51,14.20
2012,06,25,12,52,14.10
2012,06,25,12,53,14.10
2012,06,25,12,54,14.00
2012,06,25,12,55,14.00
2012,06,25,12,56,13.90
2012,06,25,12,57,14.00
2012,06,25,12,58,14.00
2012,06,25,12,59,14.00
2012,06,25,13,00,14.00
2012,06,25,13,01,14.00
2012,06,25,13,02,14.10
2012,06,25,13,03,14.10
2012,06,25,13,04,14.10
2012,06,25,13,05,14.20
2012,06,25,13,06,14.20
2012,06,25,13,07,14.20
2012,06,25,13,08,14.20
2012,06,25,13,09,14.30
2012,06,25,13,10,14.30
2012,06,25,13,11,14.40
2012,06,25,13,12,14.40
2012,06,25,13,13,14.50
2012,06,25,13,14,14.50
2012,06,25,13,15,14.60
2012,06,25,13,16,14.60
2012,06,25,13,17,14.70
2012,06,25,13,18,14.70
2012,06,25,13,19,14.80
2012,06,25,13,20,14.90
2012,06,25,13,21,14.90
2012,06,25,13,22,14.90
2012,06,25,13,23,14.90
2012,06,25,13,24,14.80
2012,06,25,13,25,14.80
2012,06,25,13,26,14.70
2012,06,25,13,27,14.40
2012,06,25,13,28,14.10
2012,06,25,13,29,13.80
2012,06,25,13,30,13.50
2012,06,25,13,31,13.30
2012,06,25,13,32,13.10
2012,06,25,13,33,13.00
2012,06,25,13,34,12.90
2012,06,25,13,35,12.90
2012,06,25,13,36,12.90
2012,06,25,13,37,12.90
2012,06,25,13,38,13.00
2012,06,25,13,39,13.00
2012,06,25,13,40,13.00
2012,06,25,13,41,13.10
2012,06,25,13,42,13.20
2012,06,25,13,43,13.30
2012,06,25,13,44,13.40
2012,06,25,13,45,13.40
2012,06,25,13,46,13.50
2012,06,25,13,47,13.60
2012,06,25,13,48,13.60
2012,06,25,13,49,13.60
2012,06,25,13,50,13.60
2012,06,25,13,51,13.60
2012,06,25,13,52,13.50
2012,06,25,13,53,13.50
2012,06,25,13,54,13.60
2012,06,25,13,55,13.60
2012,06,25,13,56,13.70
2012,06,25,13,57,13.70
2012,06,25,13,58,13.70
2012,06,25,13,59,13.70
2012,06,25,14,00,13.70
2012,06,25,14,01,13.70
2012,06,25,14,02,13.70
2012,06,25,14,03,13.70
2012,06,25,14,04,13.70
2012,06,25,14,05,13.70
2012,06,25,14,06,13.80
2012,06,25,14,07,13.80
2012,06,25,14,08,13.90
2012,06,25,14,09,13.90
2012,06,25,14,10,14.00
2012,06,25,14,11,14.00
2012,06,25,14,12,14.00
2012,06,25,14,13,14.10
2012,06,25,14,14,14.10
2012,06,25,14,15,14.20
2012,06,25,14,16,14.20
2012,06,25,14,17,14.20
2012,06,25,14,18,14.20
2012,06,25,14,19,14.30
2012,06,25,14,20,14.30
2012,06,25,14,21,14.40
2012,06,25,14,22,14.50
2012,06,25,14,23,14.50
2012,06,25,14,24,14.60
2012,06,25,14,25,14.60
2012,06,25,14,26,14.70
2012,06,25,14,27,14.70
2012,06,25,14,28,14.70
2012,06,25,14,29,14.80
2012,06,25,14,30,14.80
2012,06,25,14,31,14.80
2012,06,25,14,32,14.90
2012,06,25,14,33,14.90
2012,06,25,14,34,15.00
2012,06,25,14,35,15.00
2012,06,25,14,36,15.10
2012,06,25,14,37,15.10
2012,06,25,14,38,15.20
2012,06,25,14,39,15.30
2012,06,25,14,40,15.40
2012,06,25,14,41,15.50
2012,06,25,14,42,15.60
2012,06,25,14,43,15.70
2012,06,25,14,44,15.70
2012,06,25,14,45,15.80
2012,06,25,14,46,15.80
2012,06,25,14,47,15.80
2012,06,25,14,48,16.00
2012,06,25,14,49,16.20
2012,06,25,14,50,16.30
2012,06,25,14,51,16.50
2012,06,25,14,52,16.60
2012,06,25,14,53,16.80
2012,06,25,14,54,16.90
2012,06,25,14,55,16.90
2012,06,25,14,56,17.00
2012,06,25,14,57,17.10
2012,06,25,14,58,17.10
2012,06,25,14,59,17.10
2012,06,25,15,00,17.10
2012,06,25,15,01,17.10
2012,06,25,15,02,17.10
2012,06,25,15,03,17.20
2012,06,25,15,04,17.40
2012,06,25,15,05,17.60
2012,06,25,15,06,17.80
2012,06,25,15,07,17.80
2012,06,25,15,08,17.80
2012,06,25,15,09,17.90
2012,06,25,15,10,18.00
2012,06,25,15,11,18.10
2012,06,25,15,12,18.20
2012,06,25,15,13,18.30
2012,06,25,15,14,18.30
2012,06,25,15,15,18.40
2012,06,25,15,16,18.30
2012,06,25,15,17,18.30
2012,06,25,15,18,18.30
2012,06,25,15,19,18.30
2012,06,25,15,20,18.20
2012,06,25,15,21,18.00
2012,06,25,15,22,17.90
2012,06,25,15,23,17.90
2012,06,25,15,24,17.80
2012,06,25,15,25,17.80
2012,06,25,15,26,17.80
2012,06,25,15,27,17.90
2012,06,25,15,28,17.90
2012,06,25,15,29,17.80
2012,06,25,15,30,17.60
2012,06,25,15,31,17.50
2012,06,25,15,32,17.30
2012,06,25,15,33,17.20
2012,06,25,15,34,17.10
2012,06,25,15,35,17.00
2012,06,25,15,36,17.00
2012,06,25,15,37,16.90
2012,06,25,15,38,16.90
2012,06,25,15,39,16.80
2012,06,25,15,40,16.90
2012,06,25,15,41,16.90
2012,06,25,15,42,16.90
2012,06,25,15,43,16.80
2012,06,25,15,44,16.70
2012,06,25,15,45,16.50
2012,06,25,15,46,16.30
2012,06,25,15,47,16.20
2012,06,25,15,48,16.20
2012,06,25,15,49,16.10
2012,06,25,15,50,15.90
2012,06,25,15,51,15.80
2012,06,25,15,52,15.70
2012,06,25,15,53,15.70
2012,06,25,15,54,15.60
2012,06,25,15,55,15.60
2012,06,25,15,56,15.50
2012,06,25,15,57,15.50
2012,06,25,15,58,15.50
2012,06,25,15,59,15.50
2012,06,25,16,00,15.60
2012,06,25,16,01,15.60
2012,06,25,16,02,15.70
2012,06,25,16,03,15.80
2012,06,25,16,04,15.80
2012,06,25,16,05,15.90
2012,06,25,16,06,15.80
2012,06,25,16,07,15.70
2012,06,25,16,08,15.60
2012,06,25,16,09,15.60
2012,06,25,16,10,15.50
2012,06,25,16,11,15.50
2012,06,25,16,12,15.60
2012,06,25,16,13,15.60
2012,06,25,16,14,15.60
2012,06,25,16,15,15.50
2012,06,25,16,16,15.40
2012,06,25,16,17,15.30
2012,06,25,16,18,15.30
2012,06,25,16,19,15.30
2012,06,25,16,20,15.20
2012,06,25,16,21,15.20
2012,06,25,16,22,15.20
2012,06,25,16,23,15.20
2012,06,25,16,24,15.10
2012,06,25,16,25,15.10
2012,06,25,16,26,14.80
2012,06,25,16,27,14.70
2012,06,25,16,28,14.60
2012,06,25,16,29,14.50
2012,06,25,16,30,14.30
2012,06,25,16,31,14.10
2012,06,25,16,32,14.00
2012,06,25,16,33,13.90
2012,06,25,16,34,14.00
2012,06,25,16,35,14.00
2012,06,25,16,36,14.00
2012,06,25,16,37,13.90
2012,06,25,16,38,13.80
2012,06,25,16,39,13.60
2012,06,25,16,40,13.50
2012,06,25,16,41,13.40
2012,06,25,16,42,13.30
2012,06,25,16,43,13.30
2012,06,25,16,44,13.20
2012,06,25,16,45,13.20
2012,06,25,16,46,13.20
2012,06,25,16,47,13.20
2012,06,25,16,48,13.10
2012,06,25,16,49,13.10
2012,06,25,16,50,13.10
2012,06,25,16,51,13.10
2012,06,25,16,52,13.00
2012,06,25,16,53,13.00
2012,06,25,16,54,13.00
2012,06,25,16,55,13.20
2012,06,25,16,56,13.20
2012,06,25,16,57,13.20
2012,06,25,16,58,13.30
2012,06,25,16,59,13.30
2012,06,25,17,00,13.40
2012,06,25,17,01,13.40
2012,06,25,17,02,13.40
2012,06,25,17,03,13.40
2012,06,25,17,04,13.40
2012,06,25,17,05,13.40
2012,06,25,17,06,13.30
2012,06,25,17,07,13.30
2012,06,25,17,08,13.30
2012,06,25,17,09,13.30
2012,06,25,17,10,13.30
2012,06,25,17,11,13.30
2012,06,25,17,12,13.30
2012,06,25,17,13,13.10
2012,06,25,17,14,13.10
2012,06,25,17,15,12.90
2012,06,25,17,16,12.80
2012,06,25,17,17,12.70
2012,06,25,17,18,12.50
2012,06,25,17,19,12.50
2012,06,25,17,20,12.50
2012,06,25,17,21,12.50
2012,06,25,17,22,12.50
2012,06,25,17,23,12.50
2012,06,25,17,24,12.40
2012,06,25,17,25,12.40
2012,06,25,17,26,12.30
2012,06,25,17,27,12.30
2012,06,25,17,28,12.30
2012,06,25,17,29,12.30
2012,06,25,17,30,12.30
2012,06,25,17,31,12.20
2012,06,25,17,32,12.10
2012,06,25,17,33,12.10
2012,06,25,17,34,12.10